Flag for Vietnam Weather past 2 weeks in Ho Chi Minh, Vietnam

Now
81 °F

Passing clouds.


Feels Like: 88 °F
Forecast: 80 / 96 °F
Wind: 5 mph from Southwest

Location: Ho Chi Minh


UV Index: 10 (Very high)

Visibility: N/A


Pressure: 29.80 "Hg

Humidity: 94%

Dew point: 79 °F

Location of Ho Chi MinhLocation

Historic Weather in Ho Chi Minh

°F

Ho Chi Minh temperature yesterday

Maximum temperature yesterday: 95 °F (at 1:00 PM)
Minimum temperature yesterday: 79 °F (at 6:00 AM)
Average temperature yesterday: 86 °F

Past Weeks' High & Low Weather Summary

 TemperatureHumidityPressure
High99 °F (Apr 6, 2:30 PM)100% (Apr 6, 5:00 AM)29.95 "Hg (Apr 6, 5:00 AM)
Low73 °F (Apr 6, 5:30 AM)35% (Apr 6, 2:30 PM)29.68 "Hg (Apr 17, 3:00 PM)
Average84 °F74%29.82 "Hg
* Reported Apr 4 2:00 AM — Apr 19 2:00 AM, Ho Chi Minh, Weather by CustomWeather, © 2014

Note: Actual official high and low records may vary slightly from our data, if they occured in-between our weather recording intervals... More about our weather records

Advertising

Historic Weather Conditions — Data for Previous 24 hours

 ConditionsComfort  
Time TempWeatherWind HumidityBarometerVisibility
2:00 AM
Apr 19
81 °FPassing clouds.5 mph94%29.80 "HgN/A
1:30 AM81 °FPassing clouds.6 mph94%29.80 "HgN/A
1:00 AM82 °FPassing clouds.6 mph89%29.80 "HgN/A
12:30 AM82 °FPassing clouds.7 mph89%29.80 "HgN/A
12:00 AM82 °FPassing clouds.7 mph89%29.83 "HgN/A
11:30 PM
Apr 18
82 °FPassing clouds.7 mph89%29.83 "HgN/A
11:00 PM82 °FPassing clouds.6 mph89%29.83 "HgN/A
10:30 PM82 °FPassing clouds.6 mph89%29.83 "HgN/A
10:00 PM82 °FPassing clouds.7 mph89%29.83 "HgN/A
9:30 PM82 °FPassing clouds.9 mph89%29.83 "HgN/A
9:00 PM82 °FPassing clouds.8 mph89%29.80 "HgN/A
8:30 PM82 °FPassing clouds.13 mph89%29.80 "HgN/A
8:00 PM82 °FPassing clouds.12 mph84%29.77 "HgN/A
7:30 PM84 °FPassing clouds.10 mph79%29.77 "HgN/A
7:00 PM84 °FPassing clouds.14 mph74%29.77 "HgN/A
6:30 PM84 °FPassing clouds.12 mph74%29.77 "HgN/A
6:00 PM86 °FScattered clouds.12 mph66%29.74 "HgN/A
5:30 PM88 °FPassing clouds.13 mph59%29.74 "HgN/A
5:00 PM90 °FScattered clouds.13 mph49%29.74 "HgN/A
4:30 PM91 °FScattered clouds.13 mph49%29.71 "HgN/A
4:00 PM93 °FPassing clouds.8 mph47%29.71 "HgN/A
3:30 PM93 °FScattered clouds.6 mph49%29.74 "HgN/A
3:00 PM93 °FScattered clouds.8 mph49%29.74 "HgN/A
2:30 PM93 °FScattered clouds.7 mph53%29.74 "HgN/A
2:00 PM95 °FScattered clouds.5 mph47%29.77 "HgN/A
1:30 PM93 °FScattered clouds.7 mph41%29.77 "HgN/A
1:00 PM95 °FScattered clouds.8 mph44%29.80 "HgN/A
12:30 PM91 °FScattered clouds.8 mph52%29.80 "HgN/A
12:00 PM93 °FScattered clouds.6 mph49%29.83 "HgN/A
11:30 AM93 °FScattered clouds.7 mph49%29.83 "HgN/A
11:00 AM91 °FScattered clouds.6 mph56%29.83 "HgN/A
10:30 AM90 °FScattered clouds.5 mph55%29.86 "HgN/A
10:00 AM90 °FScattered clouds.3 mph59%29.86 "HgN/A
9:30 AM88 °FScattered clouds.2 mph66%29.86 "HgN/A
9:00 AM88 °FScattered clouds.3 mph70%29.86 "HgN/A
8:30 AM82 °FScattered clouds.3 mph84%29.86 "HgN/A
8:00 AM82 °FPartly sunny.3 mph84%29.86 "Hg5 mi
7:30 AM81 °FPartly sunny.3 mph89%29.83 "Hg5 mi
7:00 AM81 °FPartly sunny.3 mph94%29.83 "Hg5 mi
6:30 AM79 °FScattered clouds.2 mph100%29.83 "Hg5 mi
6:00 AM79 °FScattered clouds.1 mph100%29.80 "Hg5 mi
5:30 AM81 °FPassing clouds.3 mph94%29.80 "HgN/A
5:00 AM81 °FPassing clouds.2 mph94%29.80 "HgN/A
4:30 AM81 °FPassing clouds.3 mph94%29.80 "HgN/A
4:00 AM81 °FPassing clouds.3 mph89%29.80 "HgN/A
3:30 AM81 °FPassing clouds.3 mph89%29.77 "HgN/A
3:00 AM81 °FPassing clouds.5 mph89%29.77 "HgN/A
Weather by CustomWeather, © 2014

See weather overview